Starlink 11508

operational
NORAD ID: 62515 Int'l Des: 2025-004 Owner: SPXS Country: US Constellation: starlink
LEOCIRCULAR

Über Starlink 11508

Beschreibung wird geladen...

Live-Position

3D-Globus wird geladen...

Nächste Überflüge

Höhenverlauf

Altitude vs Time

uPlot chart will show altitude changes over time

Zweizeiliger Elementsatz

1 62515U 25004E 25307.81500678 .00232252 00000-0 17589-2 0 9990
2 62515 43.0025 109.2886 0002221 278.2161 81.8455 15.70900108 47411
Epoch: 3. Nov. 2025 • Age: 18 hours

Aktueller Status

Höhe 361.4 km
Geschwindigkeit 7.69 km/s
Subsatellitenpunkt -28.06°S, 179.24°W
Startdatum 8. Jan. 2025
Alter 0.8 years
Typ internet

Technische Details

Klassifizierung Payload
Masse 960.00 kg
Trockenmasse 910.00 kg
Gesamtmasse 960.00 kg
Länge 0.30 m
Durchmesser 4.10 m
Spannweite 29.00 m
Form Box + pan
Hersteller SPXS
Bus-Typ Starlink V2MD
Phasenstatus In Orbit
Besitzer/Staat SPXS/US

Große Konstellationen

Loading constellations...